Probability
0 0 0 0 0 0 0 0 0 0 0 0 0 0 0 0 0 0 0 0 0 0 0 0 0 0 0 0 0 0 0 0 0 0 0 0 0 0 0 0 0 0 0
0 0 0 0 0 0 0 0 0 0 0 0 0 0 0 0 0 0 0 0 0 0 0 0 0 0 0 0 0 0 0 0 0 0 0 0 0 0 0 0 0 0 0
0 0 0 0 0 0 0 0 0 0 0 0 0 0 0 0 0 0 0 0 0 0 0 0 0 0 0 0 0 0 0 0 0 0 0 0 0 0 0 0 0 0 0
0 0 0 0 0 0 0 0 0 0 0 0 0 0 0 0 0 0 0 0 0 0 0 0 0 0 0 0 0 0 0 0 0 0 0 0 0 0 0 0 0 0 0
0 0 0 0 0 0 0 0 0 0 0 0 0 0 0 0 0 0 0 0 0 0 0 0 0 0 0 0 0 0 0 0 0 0 0 0 0 0 0 0 0 0 0
0 0 0 0 0 0 0 0 0 0 0 0 0 0 0 0 0 0 0 0 0 0 0 0 0 0 0 0 0 0 0 0 0 0 0 0 0 0 0 0 0 0 0
0 0 0 0 0 0 0 0 0 0 0 0 0 0 0 0 0 0 0 0 0 0 0 0 0 0 0 0 0 0 0 0 0 0 0 0 0 0 0 0 0 0 0
0 0 0 0 0 0 0 0 0 0 0 0 0 0 0 0 0 0 0 0 0 0 0 0 0 0 0 0 0 0 0 0 0 0 0 0 0 0 0 0 0 0 0
0 0 0 0 0 0 0 0 0 0 0 0 0 0 0 0 0 0 0 0 0 0 0 0 0 0 0 0 0 0 0 0 0 0 0 0 0 0 0 0 0 0 0
0 0 0 0 0 0 0 0 0 0 0 0 0 0 0 0 0 0 0 0 0 0 0 0 0 0 0 0 0 0 0 0 0 0 0 0 0 0 0 0 0 0 0
0 0 0 0 0 0 0 0 0 0 0 0 0 0 0 0 0 0 0 0 0 0 0 0 0 0 0 0 0 0 0 0 0 0 0 0 0 0 0 0 0 0 0
0 0 0 0 0 0 0 0 0 0 0 0 0 0 0 0 0 0 0 0 0 0 0 0 0 0 0 0 0 0 0 0 0 0 0 0 0 0 0 0 0 0 0
0 0 0 0 0 0 0 0 0 0 0 0 0 0 0 0 0 0 0 0 0 0 0 0 0 0 0 0 0 0 0 0 0 0 0 0 0 0 0 0 0 0 0
0 0 0 0 0 0 0 0 0 0 0 0 0 0 0 0 0 0 0 0 0 0 0 0 0 0 0 0 0 0 0 0 0 0 0 0 0 0 0 0 0 0 0
0 0 0 0 0 0 0 0 0 0 0 0 0 0 0 0 0 0 0 0 0 0 0 0 0 0 0 0 0 0 0 0 0 0 0 0 0 0 0 0 0 0 0
0 0 0 0 0 0 0 0 0 0 0 0 0 0 0 0 0 0 0 0 0 0 0 0 0 0 0 0 0 0 0 0 0 0 0 0 0 0 0 0 0 0 0
0 0 0 0 0 0 0 0 0 0 0 0 0 0 0 0 0 0 0 0 0 0 0 0 0 0 0 0 0 0 0 0 0 0 0 0 0 0 0 0 0 0 0
0 0 0 0 0 0 0 0 0 0 0 0 0 0 0 0 0 0 0 0 0 0 0 0 0 0 0 0 0 0 0 0 0 0 0 0 0 0 0 0 0 0 0
0 0 0 0 0 0 0 0 0 0 0 0 0 0 0 0 0 0 0 0 0 0 0 0 0 0 0 0 0 0 0 0 0 0 0 0 0 0 0 0 0 0 0
0 0 0 0 0 0 0 0 0 0 0 0 0 0 0 0 0 0 0 0 0 0 0 0 0 0 0 0 0 0 0 0 0 0 0 0 0 0 0 0 0 0 0
0 0 0 0 0 0 0 0 0 0 0 0 0 0 0 0 0 0 0 0 0 0 0 0 0 0 0 0 0 0 0 0 0 0 0 0 0 0 0 0 0 0 0
0 0 0 0 0 0 0 0 0 0 0 0 0 0 0 0 0 0 0 0 0 0 0 0 0 0 0 0 0 0 0 0 0 0 0 0 0 0 0 0 0 0 0
0 0 0 0 0 0 0 0 0 0 0 0 0 0 0 0 0 0 0 0 0 0 0 0 0 0 0 0 0 0 0 0 0 0 0 0 0 0 0 0 0 0 0
0 0 0 0 0 0 0 0 0 0 0 0 0 0 0 0 0 0 0 0 0 0 0 0 0 0 0 0 0 0 0 0 0 0 0 0 0 0 0 0 0 0 0
0 0 0 0 0 0 0 0 0 0 0 0 0 0 0 0 0 0 0 0 0 0 0 0 0 0 0 0 0 0 0 0 0 0 0 0 0 0 0 0 0 0 0
0 0 0 0 0 0 0 0 0 0 0 0 0 0 0 0 0 0 0 0 0 0 0 0 0 0 0 0 0 0 0 0 0 0 0 0 0 0 0 0 0 0 0
Wind_Speed
3 4 3 3 3 3 3 2 3 4 3 4 4 4 3 3 3 5 4 11 11 11 10 11 11 11 11 12 12 12 12 12 13 13 14 14 14 14 15 15 15 15 15
4 4 4 4 3 3 3 3 4 3 3 3 3 3 3 3 3 6 5 7 10 10 9 10 10 11 12 12 12 12 12 13 13 14 14 14 15 15 15 15 15 15 16
5 5 4 4 4 4 4 4 4 3 3 2 2 2 2 3 2 3 5 4 4 7 7 7 9 10 11 12 13 13 13 13 13 14 14 15 15 16 16 16 17 17 17
7 6 5 4 4 4 4 4 3 3 3 3 3 2 2 1 2 3 3 4 3 3 3 4 7 9 10 12 13 13 13 13 14 14 15 16 16 17 17 18 18 18 18
8 6 5 5 5 5 4 4 4 3 3 3 3 1 1 1 2 2 2 4 4 2 0 2 6 9 10 12 13 13 13 14 14 15 16 17 18 18 19 19 19 20 20
8 7 5 6 6 5 4 4 4 3 3 2 3 1 1 2 1 1 1 2 3 3 1 1 2 5 10 13 14 14 13 14 15 16 17 18 19 20 20 21 21 21 22
9 8 6 6 6 5 5 5 4 4 3 3 3 2 1 1 2 2 1 0 1 1 1 1 1 2 4 11 14 14 15 15 16 17 18 19 20 21 22 23 23 23 24
9 8 8 6 6 6 6 5 4 3 2 3 2 2 2 2 2 2 2 2 1 0 1 2 2 3 3 3 8 14 15 16 18 19 20 22 23 23 24 25 25 25 25
8 8 8 7 6 6 5 5 4 4 2 2 3 2 2 1 3 3 2 1 1 0 1 2 3 3 4 3 4 8 14 17 19 20 23 24 25 25 26 26 26 26 26
8 9 9 8 7 6 6 5 4 3 3 2 1 2 2 2 0 4 4 2 2 2 3 3 3 4 4 4 6 12 16 18 20 23 25 26 26 27 27 27 27 27 27
8 8 9 8 8 6 6 6 4 4 3 2 2 1 1 0 1 2 4 4 4 3 4 4 4 4 5 4 4 8 16 19 22 25 26 27 28 27 27 27 27 28 28
7 8 9 8 8 6 6 5 4 5 4 3 1 1 1 0 0 1 3 4 4 4 5 5 5 5 4 4 6 13 18 21 24 26 28 28 28 28 28 28 28 28 28
8 8 9 8 7 6 6 5 5 4 3 2 0 0 1 0 0 1 2 4 5 4 5 4 3 4 4 3 4 16 18 23 25 27 28 29 29 29 28 29 28 28 28
8 9 9 9 8 7 6 5 4 3 2 2 2 1 0 1 1 1 2 3 5 4 3 5 5 4 4 4 10 21 11 23 27 28 29 30 29 29 29 28 28 28 28
10 10 10 10 8 6 6 5 3 2 3 2 1 0 1 1 1 1 2 2 3 6 6 5 4 4 6 6 13 10 8 20 28 28 29 29 29 29 29 29 29 29 28
11 12 10 9 8 6 6 4 3 2 1 1 1 2 2 2 2 2 2 3 4 6 9 4 5 6 7 10 17 12 10 26 27 28 29 29 29 29 29 29 29 29 29
12 11 10 9 8 6 5 3 3 3 1 2 2 3 3 3 2 2 3 3 4 5 11 9 5 6 8 10 11 9 11 10 12 25 28 29 29 29 29 29 29 29 29
11 10 9 8 7 6 4 3 2 2 2 3 3 3 3 3 3 3 3 4 4 5 8 13 7 6 9 10 10 11 12 12 9 21 27 28 28 29 29 29 29 29 29
11 10 8 8 7 5 3 2 1 1 2 3 3 3 4 3 4 4 4 4 4 6 6 9 10 7 7 9 10 11 11 9 12 16 22 24 27 29 29 30 30 30 30
11 9 8 7 6 4 3 2 2 2 3 4 4 4 4 4 5 4 5 5 6 6 6 8 10 9 9 8 8 8 10 6 9 12 17 20 24 27 28 30 31 30 30
10 9 8 6 5 3 3 3 3 4 4 5 5 5 4 7 10 8 7 6 6 6 6 8 10 11 10 8 8 8 11 9 9 9 9 10 11 10 14 21 25 27 29
9 8 7 5 4 3 4 3 3 3 5 5 6 5 5 7 10 14 17 17 15 11 9 9 11 12 12 10 9 9 11 13 13 5 7 11 9 11 10 9 21 29 29
8 7 5 4 4 4 3 2 5 4 5 6 6 5 6 6 11 6 11 16 15 20 21 15 14 13 13 11 10 12 12 13 15 11 10 15 10 12 10 14 26 30 31
6 5 4 3 2 3 3 2 7 5 5 6 6 6 6 6 8 10 8 7 7 10 15 13 11 12 12 10 11 13 14 13 12 9 8 14 13 13 13 10 22 29 30
5 4 3 2 1 1 1 3 6 3 4 6 6 7 8 7 15 19 11 8 10 10 16 21 23 23 27 27 22 11 9 11 14 11 6 7 10 12 11 12 15 22 23
5 4 2 1 0 0 1 4 7 2 4 5 5 7 13 15 18 20 11 10 13 12 11 12 14 17 15 16 21 11 7 10 12 10 4 4 7 9 10 6 6 8 13
Wind_Direction
158 149 137 133 127 119 117 87 67 67 45 41 42 50 30 30 57 92 81 79 74 66 58 50 39 29 19 11 4 358 353 348 345 342 339 336 334 332 329 326 324 321 319
158 140 125 112 100 93 90 86 75 67 59 45 25 27 24 30 62 102 116 91 87 75 59 45 32 21 10 1 354 348 344 341 339 336 332 329 327 325 323 320 317 315 312
146 132 124 117 113 106 90 72 65 59 58 21 14 45 41 36 41 107 123 124 108 90 67 41 21 9 360 353 347 342 339 337 335 332 329 326 323 321 318 315 312 309 307
138 127 124 123 115 100 91 83 62 62 54 23 4 11 9 64 24 89 104 114 111 97 66 30 9 356 348 344 340 337 335 334 332 329 325 323 320 317 314 311 309 306 303
132 127 124 122 109 97 91 87 60 55 49 12 320 285 353 75 89 84 100 116 116 113 97 339 356 346 339 336 332 330 330 331 329 326 323 320 318 315 312 309 305 302 299
129 120 117 114 108 105 103 103 105 74 47 350 313 315 90 96 116 136 120 133 154 176 190 13 7 347 341 331 328 325 326 326 324 323 321 319 316 313 309 306 302 300 297
120 119 117 112 113 115 117 116 111 96 45 356 356 341 299 209 206 170 171 139 210 189 151 15 18 3 328 325 324 319 322 322 321 320 318 316 313 311 307 304 301 298 295
118 121 119 117 114 111 100 95 94 99 67 34 40 8 349 332 309 230 174 193 242 58 26 358 348 323 310 301 302 313 319 318 318 316 315 315 313 309 306 302 299 296 294
114 121 122 119 114 110 109 102 98 101 117 67 54 84 95 299 321 315 270 223 228 314 301 300 293 293 297 296 295 306 308 312 312 312 313 313 310 307 303 301 298 297 295
118 122 123 120 114 111 114 112 99 102 107 114 83 63 114 128 81 319 319 326 355 334 308 300 298 287 279 278 282 298 303 306 308 310 310 309 307 304 303 301 300 298 297
122 125 123 120 117 115 114 106 95 83 95 101 97 74 49 33 198 211 284 306 326 318 317 304 289 277 269 265 263 283 300 306 307 307 306 305 304 303 303 303 302 301 299
126 125 122 119 117 116 118 114 107 87 82 84 72 82 115 149 320 275 277 299 297 290 300 286 280 273 269 271 284 303 307 307 306 304 303 303 303 303 304 304 302 300 297
141 138 130 123 118 118 115 108 100 99 95 94 64 50 57 283 250 253 275 289 294 298 287 281 297 310 307 318 315 314 308 307 305 304 303 302 303 304 303 301 299 297 296
141 136 128 120 121 122 120 114 115 130 136 182 226 184 231 264 260 242 254 293 303 290 282 295 309 299 322 325 310 314 308 305 304 303 302 303 303 302 301 299 298 296 295
138 133 127 125 128 127 124 124 133 159 169 201 203 226 258 256 246 246 249 241 265 290 293 275 287 326 324 307 305 304 292 301 303 302 303 302 301 300 299 299 297 296 294
134 132 128 126 125 123 128 136 143 147 158 226 193 234 263 261 266 263 258 257 248 268 283 277 293 295 304 307 304 303 296 301 301 300 299 299 300 299 299 298 297 296 294
133 132 130 128 128 131 136 140 153 155 206 258 257 245 258 264 266 268 267 265 262 264 281 287 280 292 296 293 295 289 289 286 287 296 299 300 300 300 300 299 297 295 294
129 127 126 125 125 124 125 132 151 169 233 259 271 276 278 283 281 275 270 268 271 272 283 295 298 294 291 290 290 289 297 296 292 299 301 302 302 302 300 298 297 296 295
120 117 115 115 115 113 107 91 69 323 290 279 273 268 270 276 277 275 280 282 281 288 285 294 299 295 290 290 292 291 290 290 295 299 302 301 300 299 298 300 301 300 298
114 111 107 107 109 111 107 72 21 329 307 297 287 275 267 262 262 269 280 275 278 281 284 289 294 294 290 286 287 295 297 284 290 296 294 294 295 299 299 300 298 297 296
110 107 106 107 111 118 94 59 9 335 324 312 303 293 286 288 290 290 286 277 281 281 286 290 292 294 294 296 295 293 298 298 287 282 283 286 291 288 290 292 293 292 292
105 106 111 120 124 111 96 43 347 329 318 308 301 298 297 296 296 301 305 305 302 301 300 293 294 294 295 292 292 294 297 300 297 273 284 292 287 286 285 280 288 293 296
111 112 115 117 115 121 111 11 332 325 304 293 292 293 298 298 306 293 293 298 299 299 298 295 293 291 291 290 289 290 288 287 289 292 295 293 289 287 285 289 295 296 297
115 115 114 110 112 145 135 352 333 331 305 299 298 296 294 292 295 299 287 289 281 290 290 290 282 282 287 287 280 284 287 287 284 280 275 286 292 290 291 287 292 292 293
109 107 107 103 93 138 153 341 338 319 305 306 308 313 315 301 303 310 312 300 294 290 297 297 296 297 299 300 300 298 295 296 295 292 277 273 286 296 291 283 283 288 293
106 110 116 134 157 228 286 326 331 309 307 307 306 306 311 310 310 314 311 301 301 299 296 297 297 297 294 292 299 295 292 295 296 296 272 277 293 309 299 264 264 285 290